Flag for India Weather past 2 weeks in Chennai, Tamil Nadu, India

Now
82 °F

Scattered clouds.


Feels Like: 91 °F
Forecast: 78 / 86 °F
Wind: 7 mph from Northeast

Location: Madras / Minambakkam

Current Time: Oct 24, 2014 at 4:22:09 PM

Latest Report: Oct 24, 2014 at 3:40 PM


Visibility: 4 mi

Pressure: 29.80 "Hg

Humidity: 84%

Dew point: 77 °F

Location of ChennaiLocation

Historic Weather in Chennai — Graph

°F

Chennai temperature yesterday

Maximum temperature yesterday: 84 °F (at 9:10 AM)
Minimum temperature yesterday: 77 °F (at 4:40 AM)
Average temperature yesterday: 78 °F

Past Weeks' High & Low Weather Summary

 TemperatureHumidityPressure
High97 °F (Oct 13, 2:10 PM)100% (Oct 10, 4:10 AM)29.95 "Hg (Oct 10, 4:10 AM)
Low75 °F (Oct 18, 4:40 AM)39% (Oct 13, 2:10 PM)29.56 "Hg (Oct 11, 2:10 PM)
Average83 °F84%29.79 "Hg
* Reported Oct 9 2:40 PM — Oct 24 3:10 PM, Chennai, Weather by CustomWeather, © 2014

Note: Actual official high and low records may vary slightly from our data, if they occured in-between our weather recording intervals... More about our weather records

Advertising

Chennai weather history for previous 24 hours

 ConditionsComfort  
Time TempWeatherWind HumidityBarometerVisibility
3:10 PM
Oct 24
84 °FScattered clouds.7 mph79%29.80 "Hg3 mi
2:40 PM82 °FBroken clouds.5 mph84%29.80 "Hg3 mi
2:10 PM84 °FBroken clouds.3 mph79%29.80 "Hg3 mi
1:40 PM84 °FBroken clouds.5 mph79%29.83 "Hg3 mi
1:10 PM82 °FBroken clouds.3 mph84%29.83 "Hg3 mi
12:10 PM82 °FFog.5 mph84%29.86 "Hg2 mi
11:40 AM81 °FFog.5 mph89%29.89 "Hg2 mi
11:10 AM81 °FFog.5 mph89%29.89 "Hg2 mi
10:40 AM79 °FFog.3 mph94%29.89 "Hg2 mi
10:10 AM79 °FFog.5 mph94%29.92 "Hg2 mi
9:40 AM77 °FFog.3 mph100%29.92 "Hg2 mi
8:40 AM77 °FThunderstorms. More clouds than sun.3 mph100%29.92 "Hg1 mi
8:10 AM77 °FThunderstorms. More clouds than sun.6 mph100%29.92 "Hg1 mi
7:40 AM77 °FThunderstorms. More clouds than sun.5 mph100%29.89 "Hg1 mi
7:10 AM77 °FThunderstorms. More clouds than sun.8 mph100%29.92 "Hg1 mi
6:40 AM77 °FThunderstorms. More clouds than sun.7 mph100%29.89 "Hg1 mi
6:10 AM77 °FThunderstorms. Mostly cloudy.5 mph100%29.86 "Hg1 mi
5:40 AM77 °FThunderstorms. Mostly cloudy.5 mph100%29.86 "Hg1 mi
5:10 AM77 °FThunderstorms. Mostly cloudy.5 mph100%29.83 "Hg1 mi
4:40 AM77 °FThunderstorms. Mostly cloudy.No wind100%29.83 "Hg1 mi
4:10 AM77 °FThunderstorms. Mostly cloudy.2 mph100%29.83 "Hg1 mi
3:40 AM77 °FThunderstorms. Mostly cloudy.3 mph100%29.83 "Hg1 mi
3:10 AM77 °FThunderstorms. Mostly cloudy.No wind100%29.83 "Hg1 mi
2:40 AM77 °FThunderstorms. Mostly cloudy.6 mph100%29.83 "Hg1 mi
2:10 AM77 °FThunderstorms. Mostly cloudy.6 mph100%29.83 "Hg1 mi
1:40 AM77 °FThunderstorms. Mostly cloudy.5 mph100%29.83 "Hg1 mi
1:10 AM79 °FRain. Mostly cloudy.5 mph94%29.86 "Hg1 mi
12:40 AM79 °FRain. Mostly cloudy.5 mph94%29.86 "Hg1 mi
11:10 PM
Oct 23
79 °FLight rain. Partly cloudy.No wind94%29.89 "Hg1 mi
10:40 PM79 °FFog.No wind94%29.89 "Hg1 mi
10:10 PM79 °FFog.No wind94%29.89 "Hg1 mi
9:40 PM79 °FFog.No wind94%29.92 "Hg1 mi
9:10 PM77 °FFog.No wind100%29.89 "Hg1 mi
8:40 PM77 °FFog.No wind100%29.89 "Hg1 mi
7:40 PM77 °FFog.No wind100%29.89 "Hg2 mi
7:10 PM77 °FFog.No wind100%29.86 "Hg2 mi
6:40 PM77 °FFog.No wind100%29.86 "Hg2 mi
6:10 PM77 °FFog.No wind100%29.83 "Hg2 mi
5:40 PM77 °FDrizzle. More clouds than sun.No wind100%29.83 "Hg2 mi
5:10 PM77 °FDrizzle. More clouds than sun.No wind100%29.83 "Hg2 mi
Weather by CustomWeather, © 2014

See weather overviewHow to use our weather pages